TimeEDT,TemperatureF,Dew PointF,Humidity,Sea Level PressureIn,VisibilityMPH,Wind Direction,Wind SpeedMPH,Gust SpeedMPH,PrecipitationIn,Events,Conditions,WindDirDegrees,DateUTC
12:15 AM,60.8,46.4,59,29.96,10.0,NNE,5.8,-,N/A,,Clear,20,2012-10-21 04:15:00
12:35 AM,59.0,46.4,63,29.97,10.0,NNE,5.8,-,N/A,,Clear,20,2012-10-21 04:35:00
12:55 AM,59.0,46.4,63,29.97,10.0,NNE,4.6,-,N/A,,Clear,30,2012-10-21 04:55:00
1:15 AM,59.0,46.4,63,29.97,10.0,NE,4.6,-,N/A,,Clear,40,2012-10-21 05:15:00
1:35 AM,59.0,46.4,63,29.98,10.0,NNE,3.5,-,N/A,,Clear,30,2012-10-21 05:35:00
1:55 AM,57.2,46.4,67,29.98,10.0,NE,4.6,-,N/A,,Clear,40,2012-10-21 05:55:00
2:15 AM,55.4,46.4,72,29.99,10.0,NE,6.9,-,N/A,,Clear,50,2012-10-21 06:15:00
2:35 AM,57.2,46.4,67,29.99,10.0,NE,6.9,-,N/A,,Clear,40,2012-10-21 06:35:00
2:55 AM,57.2,44.6,63,29.99,10.0,NE,5.8,-,N/A,,Clear,40,2012-10-21 06:55:00
3:15 AM,57.2,44.6,63,30.00,10.0,NNE,6.9,-,N/A,,Clear,30,2012-10-21 07:15:00
3:35 AM,55.4,44.6,67,30.00,10.0,NNE,6.9,-,N/A,,Clear,30,2012-10-21 07:35:00
3:55 AM,55.4,44.6,67,30.00,10.0,NE,6.9,-,N/A,,Clear,40,2012-10-21 07:55:00
4:15 AM,55.4,44.6,67,30.01,10.0,NE,6.9,-,N/A,,Clear,40,2012-10-21 08:15:00
4:35 AM,55.4,44.6,67,30.01,10.0,NE,5.8,-,N/A,,Clear,40,2012-10-21 08:35:00
4:55 AM,53.6,44.6,72,30.02,10.0,NE,4.6,-,N/A,,Clear,50,2012-10-21 08:55:00
5:15 AM,55.4,44.6,67,30.03,10.0,NE,6.9,-,N/A,,Clear,50,2012-10-21 09:15:00
5:35 AM,55.4,44.6,67,30.03,10.0,NE,6.9,-,N/A,,Clear,40,2012-10-21 09:35:00
5:55 AM,53.6,44.6,72,30.03,10.0,NE,6.9,-,N/A,,Clear,50,2012-10-21 09:55:00
6:15 AM,53.6,44.6,72,30.05,10.0,NNE,5.8,-,N/A,,Clear,30,2012-10-21 10:15:00
6:35 AM,53.6,44.6,72,30.05,10.0,NE,8.1,-,N/A,,Clear,40,2012-10-21 10:35:00
6:55 AM,53.6,44.6,72,30.07,10.0,NNE,6.9,-,N/A,,Clear,30,2012-10-21 10:55:00
7:15 AM,53.6,44.6,72,30.07,10.0,NNE,5.8,-,N/A,,Clear,30,2012-10-21 11:15:00
7:35 AM,51.8,42.8,71,30.08,10.0,NNE,4.6,-,N/A,,Clear,30,2012-10-21 11:35:00
7:55 AM,51.8,42.8,71,30.08,10.0,Calm,Calm,-,N/A,,Clear,0,2012-10-21 11:55:00
8:15 AM,51.8,42.8,71,30.10,10.0,Calm,Calm,-,N/A,,Clear,0,2012-10-21 12:15:00
8:35 AM,50.0,44.6,82,30.10,10.0,Calm,Calm,-,N/A,,Clear,0,2012-10-21 12:35:00
8:55 AM,50.0,44.6,82,30.11,10.0,Calm,Calm,-,N/A,,Clear,0,2012-10-21 12:55:00
9:15 AM,53.6,44.6,72,30.12,10.0,Calm,Calm,-,N/A,,Clear,0,2012-10-21 13:15:00
9:35 AM,55.4,44.6,67,30.13,10.0,Calm,Calm,-,N/A,,Clear,0,2012-10-21 13:35:00
9:55 AM,57.2,42.8,59,30.14,10.0,NE,5.8,-,N/A,,Clear,40,2012-10-21 13:55:00
10:15 AM,59.0,42.8,55,30.15,10.0,NE,8.1,-,N/A,,Clear,40,2012-10-21 14:15:00
10:35 AM,60.8,41.0,48,30.15,10.0,NE,9.2,-,N/A,,Clear,40,2012-10-21 14:35:00
10:55 AM,60.8,41.0,48,30.16,10.0,ENE,8.1,-,N/A,,Clear,60,2012-10-21 14:55:00
11:35 AM,62.6,42.8,48,30.16,10.0,NNE,8.1,-,N/A,,Clear,30,2012-10-21 15:35:00
12:55 PM,68.0,44.6,43,30.16,10.0,NE,3.5,-,N/A,,Clear,50,2012-10-21 16:55:00
1:35 PM,69.8,44.6,40,30.15,10.0,Calm,Calm,-,N/A,,Clear,0,2012-10-21 17:35:00
1:55 PM,69.8,44.6,40,30.14,10.0,NNE,5.8,-,N/A,,Clear,30,2012-10-21 17:55:00
2:15 PM,69.8,44.6,40,30.13,10.0,Calm,Calm,-,N/A,,Clear,0,2012-10-21 18:15:00
2:35 PM,71.6,44.6,38,30.12,10.0,WNW,3.5,-,N/A,,Clear,290,2012-10-21 18:35:00
2:55 PM,71.6,44.6,38,30.11,10.0,Calm,Calm,-,N/A,,Clear,0,2012-10-21 18:55:00
3:15 PM,71.6,44.6,38,30.10,10.0,Calm,Calm,-,N/A,,Clear,0,2012-10-21 19:15:00
3:35 PM,73.4,42.8,33,30.10,10.0,NW,4.6,-,N/A,,Clear,320,2012-10-21 19:35:00
3:55 PM,71.6,44.6,38,30.10,10.0,North,4.6,-,N/A,,Clear,360,2012-10-21 19:55:00
4:15 PM,73.4,44.6,36,30.10,10.0,Calm,Calm,-,N/A,,Clear,0,2012-10-21 20:15:00
4:35 PM,73.4,44.6,36,30.10,10.0,NNE,3.5,-,N/A,,Clear,30,2012-10-21 20:35:00
5:15 PM,73.4,44.6,36,30.10,10.0,Calm,Calm,-,N/A,,Clear,0,2012-10-21 21:15:00
5:35 PM,73.4,44.6,36,30.10,10.0,Calm,Calm,-,N/A,,Clear,0,2012-10-21 21:35:00
5:55 PM,73.4,44.6,36,30.10,10.0,Calm,Calm,-,N/A,,Clear,0,2012-10-21 21:55:00
6:15 PM,71.6,44.6,38,30.10,10.0,Calm,Calm,-,N/A,,Clear,0,2012-10-21 22:15:00
7:35 PM,68.0,48.2,49,30.12,10.0,Calm,Calm,-,N/A,,Clear,0,2012-10-21 23:35:00
7:55 PM,64.4,50.0,59,30.13,10.0,Calm,Calm,-,N/A,,Clear,0,2012-10-21 23:55:00
8:15 PM,64.4,50.0,59,30.13,10.0,Calm,Calm,-,N/A,,Clear,0,2012-10-22 00:15:00
8:35 PM,62.6,50.0,63,30.14,10.0,WSW,3.5,-,N/A,,Clear,240,2012-10-22 00:35:00
8:55 PM,62.6,46.4,55,30.14,10.0,Calm,Calm,-,N/A,,Clear,0,2012-10-22 00:55:00
9:15 PM,60.8,50.0,68,30.14,10.0,Calm,Calm,-,N/A,,Clear,0,2012-10-22 01:15:00
9:35 PM,60.8,50.0,68,30.14,10.0,Calm,Calm,-,N/A,,Clear,0,2012-10-22 01:35:00
9:55 PM,60.8,48.2,63,30.14,10.0,Calm,Calm,-,N/A,,Clear,0,2012-10-22 01:55:00
10:15 PM,60.8,50.0,68,30.15,10.0,Calm,Calm,-,N/A,,Clear,0,2012-10-22 02:15:00
10:35 PM,60.8,48.2,63,30.15,10.0,SE,4.6,-,N/A,,Clear,130,2012-10-22 02:35:00
11:15 PM,60.8,48.2,63,30.15,10.0,Calm,Calm,-,N/A,,Clear,0,2012-10-22 03:15:00
11:35 PM,59.0,48.2,67,30.15,10.0,Calm,Calm,-,N/A,,Clear,0,2012-10-22 03:35:00
11:55 PM,59.0,48.2,67,30.15,10.0,Calm,Calm,-,N/A,,Clear,0,2012-10-22 03:55:00